Content
SEND FEEDBACK

Daily
Averages
Monthly
Summary
Mexico

LEONA VICARIO, QUINTANA ROO


Home > North America > Mexico > Quintana Roo
Elevation: 26 feet     Latitude: 20 59N     Longitude: 087 12W

WEATHER
 
SELECT A DAY
Number of Records: 166,321;   Date Range: 1/1/95 - 10/19/14
 
SHARE

PRINT THIS DATA

[ ← Previous Day ]
WEATHER ALMANAC - JANUARY 6, 2013
[ Next Day → ]
[ °C ]   °F
Weather ElementAverageHighLow
Temperature77.2 °F82.4 °F (9:42 am)73.4 °F (7:43 pm)
Dewpoint70.2 °F71.6 °F (1:44 am)66.2 °F (11:44 am)
Humidity80 %94 % (7:43 pm)58 % (11:44 am)
Barometer30.05 in30.10 in (8:40 am)30.01 in (3:46 pm)
Wind Speed5.4 mph11.5 mph (3:46 pm)
Weather ElementAverage
Visibility7.5 mi
Wind DirectionESE (99.1 °)

Weather ElementTotal
Precipitation---
Cooling Degree Days12.9 (Base 65)
Growing Degree Days27.9 (Base 50)
Averaged from 23 records on January 6, 2013
WEATHER CONDITIONS BREAKOUT
WIND DIRECTION BREAKOUT
WEATHER BY HOUR - JANUARY 6, 2013
[ °C ]   °F
Local TimeTemperatureDewpointHumidityBarometerVisibilityWind DirectionWind SpeedGust SpeedPrecipitationEventsConditions
1:44 AM75.2 °F71.6 °F89 %30.05 in7.0 miEast (80°)6.9 mphScattered Clouds
2:46 AM75.2 °F71.6 °F89 %30.02 in7.0 miEast (90°)5.8 mphScattered Clouds
3:45 AM75.2 °F71.6 °F89 %30.03 in7.0 miEast (100°)8.1 mphScattered Clouds
4:44 AM75.2 °F69.8 °F83 %30.04 in7.0 miESE (120°)5.8 mphScattered Clouds
5:43 AM75.2 °F69.8 °F83 %30.05 in7.0 miEast (80°)5.8 mphScattered Clouds
6:41 AM75.2 °F68.0 °F78 %30.07 in7.0 miCalmScattered Clouds
7:42 AM77.0 °F69.8 °F78 %30.08 in8.0 miEast (100°)2.3 mphScattered Clouds
8:40 AM80.6 °F69.8 °F70 %30.10 in8.0 miESE (120°)5.8 mphMostly Cloudy
9:42 AM82.4 °F68.0 °F62 %30.09 in8.0 miESE (110°)5.8 mphMostly Cloudy
10:42 AM82.4 °F68.0 °F62 %30.09 in8.0 miEast (100°)6.9 mphMostly Cloudy
11:44 AM82.4 °F66.2 °F58 %30.07 in8.0 miEast (100°)6.9 mphMostly Cloudy
12:44 PM80.6 °F69.8 °F70 %30.05 in8.0 miESE (110°)9.2 mphMostly Cloudy
1:41 PM82.4 °F68.0 °F62 %30.03 in8.0 miESE (110°)8.1 mphMostly Cloudy
2:44 PM80.6 °F69.8 °F70 %30.03 in8.0 miSE (140°)9.2 mphMostly Cloudy
3:46 PM80.6 °F69.8 °F70 %30.01 in8.0 miSE (140°)11.5 mphMostly Cloudy
4:46 PM78.8 °F71.6 °F78 %30.02 in8.0 miSE (140°)3.5 mphMostly Cloudy
5:43 PM75.2 °F71.6 °F89 %30.02 in8.0 miEast (80°)4.6 mphScattered Clouds
6:44 PM75.2 °F71.6 °F89 %30.05 in7.0 miEast (80°)3.5 mphPartly Cloudy
7:43 PM73.4 °F71.6 °F94 %30.06 in7.0 miNNE (30°)2.3 mphPartly Cloudy
8:45 PM73.4 °F71.6 °F94 %30.08 in7.0 miNE (40°)3.5 mphPartly Cloudy
9:42 PM73.4 °F71.6 °F94 %30.07 in7.0 miNE (50°)2.3 mphScattered Clouds
10:45 PM73.4 °F71.6 °F94 %30.07 in7.0 miNNW (340°)3.5 mphScattered Clouds
11:44 PM73.4 °F71.6 °F94 %30.08 in7.0 miNNE (20°)2.3 mphScattered Clouds
Hourly data recorded from MMUN, located miles away from Leona Vicario, Quintana Roo







STORIES FROM OUR PARTNERS